Regional Weather Roundup
Issued by NWS Lake Charles, LA

Home | Current Version | Previous Version | Text Only | Print | Product List | Glossary On
Versions: 1 2 3 4 5 6 7 8 9 10 11 12 13 14 15 16 17 18 19 20 21 22 23 24 25 26 27 28 29 30 31 32 33 34 35 36 37 38 39 40 41 42 43 44 45 46 47 48 49 50
000
ASUS44 KLCH 242210
RWRLCH
RWRLCH
REGIONAL WEATHER ROUNDUP
NATIONAL WEATHER SERVICE LAKE CHARLES LA
400 PM CST MON NOV 24 2014

Note: "fair" indicates few or no clouds below 12,000 feet with no
significant weather and/or obstructions to visibility.


ACROSS SOUTHEAST TEXAS

CITY           SKY/WX    TMP DP  RH WIND       PRES   REMARKS
BEAUMONT       SUNNY     64  36  35 N18       29.99S
BEAUMONT CITY    N/A     61  36  39 N13       30.01R
ORANGE         CLEAR     62  33  33 N10       30.01S
JASPER         PTSUNNY   59  35  41 NW3       30.05S
$$

ACROSS CENTRAL LOUISIANA

CITY           SKY/WX    TMP DP  RH WIND       PRES   REMARKS
LEESVILLE      MOSUNNY   61  35  37 NW9       30.01R
FULLERTON        N/A     63  34  33 VRB3      29.99R
ALEXANDRIA INT MOSUNNY   61  34  36 NW10      29.99R
ESLER FIELD    MOSUNNY   62  34  35 VRB7      30.00R
DERIDDER         N/A     60  35  39 NW10      30.03S
OAKDALE        PTCLDY    62  36  38 N9        29.99S
OPELOUSAS        N/A     60  38  43 N10       29.98R
$$

ACROSS SOUTHWEST AND SOUTH CENTRAL LOUISIANA

CITY           SKY/WX    TMP DP  RH WIND       PRES   REMARKS
SULPHUR        PTCLDY    62  32  31 N17G23    30.00R
LAKE CHARLES   MOSUNNY   63  35  35 N12       29.98S
CHENNAULT INT  NOT AVBL
CAMERON PHI    CLEAR     63  39  42 N13       30.01S
DEQUINCY         N/A     59  34  39 N8        30.01S
JENNINGS         N/A     60  38  44 N10       29.99R
LAFAYETTE      MOSUNNY   63  38  39 N16       29.96R
NEW IBERIA     SUNNY     64  42  44 N16       29.96R
ABBEVILLE        N/A     62  40  45 N13G20    29.96R
PATTERSON      SUNNY     64  45  48 N9        29.94S
SALT POINT       N/A     70  46  42 N7        29.91R
$$

SELECTED SITES ACROSS THE REGION

CITY           SKY/WX    TMP DP  RH WIND       PRES   REMARKS
HOUSTON BUSH   MOSUNNY   62  31  31 N13       30.02S
HOUSTON HOBBY  PTSUNNY   64  31  28 N15       30.00F
GALVESTON      SUNNY     63  39  41 N17       30.00S
COLLEGE STAT   MOSUNNY   63  28  26 N9        30.04S
CONROE         CLOUDY    59  33  37 N7        30.04S
HUNTSVILLE     MOSUNNY   62  27  26 NW10      30.03S
LUFKIN         MOSUNNY   65  29  25 N6        30.03R
SHREVEPORT     MOSUNNY   60  29  30 W10       30.01R
MONROE         SUNNY     61  32  33 W7        30.00R
NATCHEZ MS     MOSUNNY   59  34  38 NW9       30.00R
BATON ROUGE    SUNNY     64  39  39 NW8       29.95R
N.O. INTL ARPT PTSUNNY   66  47  50 NW13      29.91R
SLIDELL        SUNNY     67  47  48 NW8       29.89S
$$

MARINE REPORTS

STATION/POSITION TIME  TEMP    WIND        PRES    VSBY  WAVE
                       AIR SEA DIR/SP/G                  HT/PER
                 (UTC) (F)     (DEG/KT/KT) (MB)    (MI)  (FT/S)
BUOY 30 S HIGH I 2200   62 62  360/ 16/ 17 1014.9F         3/ 4
SEA RIM ST PARK  2200   62     360/ 15/ 19 1016.0S
PORT ARTHUR      2200      61  330/ 11/ 16 1015.5R
SABINE PASS N    2200   62 60  360/ 13/ 17 1015.4R
TEXAS POINT      NOT AVBL
CALCASIEU PASS   2200   62 60   20/ 13/ 15   N/A
LK CHARLES BEACH 2200   62 62              1015.5S
MARSH ISLAND     NOT AVBL
FRESH WATER LOCK 2200   62 60  330/ 14/ 19 1013.9R
AMERADA PASS     2200   65 58  340/  6/ 12 1012.8S
$$


USA.gov is the U.S. government's official web portal to all federal, state and local government web resources and services.